Regional Weather Roundup
Issued by NWS Little Rock, AR

Home | Current Version | Previous Version | Text Only | Print | Product List | Glossary On
Versions: 1 2 3 4 5 6 7 8 9 10 11 12 13 14 15 16 17 18 19 20 21 22 23 24 25 26 27 28 29 30 31 32 33 34 35 36 37 38 39 40 41 42 43 44 45 46 47 48 49 50
000
ASUS44 KLZK 261005
RWRLZK

WEATHER ROUNDUP FOR ARKANSAS
NATIONAL WEATHER SERVICE LITTLE ROCK AR
500 AM CDT SAT MAY 26 2018

NOTE: "FAIR" INDICATES FEW OR NO CLOUDS BELOW 12,000 FEET WITH NO
SIGNIFICANT WEATHER AND/OR OBSTRUCTIONS TO VISIBILITY.

ARZ001-003-010-029-261100-
NORTHWEST ARKANSAS

CITY           SKY/WX    TMP DP  RH WIND       PRES   REMARKS
FAYETTEVILLE   FOG       62  62 100 CALM      29.86F VSB 1/2
FORT SMITH     CLOUDY    69  67  93 CALM      29.84S
HARRISON       CLOUDY    64  64 100 CALM      29.86S FOG
BENTONVILLE    CLEAR     65  64  97 CALM      29.88S
ROGERS         CLOUDY    66  64  93 CALM      29.87
SILOAM SPGS    FOG       63  62  97 CALM      29.87  VSB 1/4
HIGHFILL       FOG       64  62  93 CALM      29.87S VSB 1/2
$$

ARZ004-005-016-261100-
NORTH CENTRAL ARKANSAS

CITY           SKY/WX    TMP DP  RH WIND       PRES   REMARKS
BATESVILLE     PTCLDY    67  66  97 CALM      29.84F
FLIPPIN        CLOUDY    67  66  97 CALM      29.85S
MTN HOME       CLOUDY    66  66 100 CALM      29.84R
$$

ARZ040-041-261100-
WEST CENTRAL ARKANSAS

CITY           SKY/WX    TMP DP  RH WIND       PRES   REMARKS
MENA           PTCLDY   N/A N/A N/A CALM      29.86S
MOUNT IDA      PTCLDY    64  64 100 CALM      29.82F
$$

ARZ009-017-025-026-028-261100-
NORTHEAST ARKANSAS

CITY           SKY/WX    TMP DP  RH WIND       PRES   REMARKS
CORNING        FAIR      70  70 100 CALM      29.84R
JONESBORO      FAIR      71  71 100 CALM      29.84R
NEWPORT        CLOUDY    70  70 100 S5        29.84S
WALNUT RIDGE     N/A     69  69 100 S3        29.84S FOG
BLYTHEVILLE    FAIR      72  68  87 SE5       29.85S
$$

ARZ022-023-033-042-044-261100-
CENTRAL ARKANSAS

CITY           SKY/WX    TMP DP  RH WIND       PRES   REMARKS
LITTLE ROCK    FAIR      67  67 100 S5        29.83F
N LITTLE ROCK    N/A     68  67  97 CALM      29.79F
JACKSONVILLE   CLOUDY    69  69 100 CALM      29.82F
CONWAY         PTSUNNY   72  70  94 CALM      29.82F FOG
SEARCY         CLOUDY    71  71 100 S3        29.84S
HOT SPRINGS    PTCLDY    70  70 100 CALM      29.84S
RUSSELLVILLE   CLOUDY    68  68 100 CALM      29.82F FOG
CLINTON        MOCLDY    68  68 100 SW5       29.85S
$$

ARZ036-261100-
EAST ARKANSAS

CITY           SKY/WX    TMP DP  RH WIND       PRES   REMARKS
WEST MEMPHIS   FAIR      70  70 100 CALM      29.85R FOG
$$

ARZ050-053-066-070-073-261100-
SOUTHWEST ARKANSAS

CITY           SKY/WX    TMP DP  RH WIND       PRES   REMARKS
ARKADELPHIA    FAIR      67  66  97 S3        29.85R
CAMDEN         FAIR      68  66  94 SE3       29.84R FOG
TEXARKANA      PTCLDY    66  66 100 SE5       29.83F
EL DORADO      FAIR      69  69 100 SW3       29.86R
DE QUEEN       MOCLDY    65  65 100 CALM      29.81F FOG
$$

ARZ056-057-069-261100-
SOUTHEAST ARKANSAS

CITY           SKY/WX    TMP DP  RH WIND       PRES   REMARKS
PINE BLUFF     CLOUDY    69  67  93 S5        29.85S
STUTTGART      FAIR      70  68  93 SE7       29.86R

$$





USA.gov is the U.S. government's official web portal to all federal, state and local government web resources and services.